Weather WX

World > North America > United States > Arkansas

Fort Smith, Arkansas Regional Weather

Lat: 35.39N, Lon: 94.4W
Wx Zone: ARZ029
Warning FLW WEATHER ALERT - (More Info. Click Here) Warning
Feedback

Fort Smith, AR Regional Weather

Expires:201906250800;;039898
ASUS44 KLZK 250705
RWRLZK

WEATHER ROUNDUP FOR ARKANSAS
NATIONAL WEATHER SERVICE LITTLE ROCK AR
200 AM CDT TUE JUN 25 2019

NOTE: "FAIR" INDICATES FEW OR NO CLOUDS BELOW 12,000 FEET WITH NO
SIGNIFICANT WEATHER AND/OR OBSTRUCTIONS TO VISIBILITY.


ARZ001-003-010-029-250800-
NORTHWEST ARKANSAS
  
CITY           SKY/WX    TMP DP  RH WIND       PRES   REMARKS
FAYETTEVILLE   CLEAR     61  60  97 CALM      29.97S                  
FORT SMITH     CLEAR     70  68  93 CALM      29.93S                  
HARRISON       CLEAR     61  59  93 CALM      29.97S                  
BENTONVILLE    CLEAR     64  61  90 SE3       29.98S                  
ROGERS         CLEAR     63  60  90 SE3       29.98R                  
SILOAM SPGS    CLEAR     62  61  96 MISG      29.96S                  
$$


SKY/WX - Weather  TMP - Temperature  DP - Dew Point  RH - Relative Humidity
WIND - Wind Direction/Speed PRES - Barometric Pressure VSB - Visibility
WCI - Wind Chill Index E13G22 Wind - East Wind 13 mph/Gusts of 22 mph